sat.trackr.live / text

‹ back to catalog

STARLINK-3989

NORAD 52630 · 2022-052AJ

PAYLOAD ACTIVE UNKNOWN

§ Identity

Operator
Country
US
Launch date
2022-05-14
Launch site
AFETR
Launch vehicle
Mass (kg)
RCS (m²)

Purposes: comms

External: N2YO · Heavens-Above · Gunter

§ Orbital elements

Epoch: 2026-05-25T02:20:47.524128Z

Period
95.44 min
Inclination
53.2132°
Eccentricity
0.0001303
Mean motion
15.08841303 rev/d
Perigee alt
538.8 km
Apogee alt
540.6 km
Semi-major
6,917.9 km
B*
-2.4171e-5
RAAN
286.1105°
Arg perigee
85.0375°
Mean anomaly
275.0765°
Rev number
22,252

§ Raw data

STARLINK-39891 52630U 22052AJ  26145.09777227 -.00000673  00000+0 -24171-4 0  99922 52630  53.2132 286.1105 0001303  85.0375 275.0765 15.08841303222520

JSON: /api/v1/satellites/52630 · /tle

For live sub-satellite position, see the globe view (requires WebGL).

§ Visibility from observer

Set your observer location to see the next 7 days of passes ≥ 10°. The values pass through the URL so the page stays shareable.

No JS? Fill the form by hand. The geolocation button needs JavaScript.